Total_Precipitation_Accumulation
1.88 2.35 2.91 3.75 4.86 5.84 6.16 5.68 5.22 4.95 4.57 4.21 3.63 3.32 3.45 3.42 3.19 2.86 2.50 2.45 2.34 2.40 2.67 2.43 2.67 2.51 2.65 2.79 2.91 3.12 3.16 3.02 3.10 3.31 3.24 2.78 2.43 2.37 2.30 2.41 2.69 2.59 2.49
2.07 2.79 3.82 4.41 4.69 4.86 4.62 4.31 4.10 3.95 3.46 3.21 3.14 2.95 3.05 2.80 2.64 2.56 2.66 2.27 2.13 2.20 2.19 2.53 2.54 2.57 2.81 2.83 2.85 3.07 2.99 2.75 2.87 3.25 3.49 3.11 2.84 2.37 1.83 1.98 2.02 2.12 2.41
2.25 3.07 3.67 3.80 3.55 3.23 3.11 3.08 3.21 3.00 2.89 2.96 2.91 2.86 2.98 2.70 2.52 2.48 2.63 2.24 1.94 1.93 2.04 2.19 2.39 2.66 2.55 2.75 2.85 2.77 2.89 2.93 2.88 2.95 3.42 3.40 3.12 2.63 2.02 1.76 1.80 1.97 2.29
1.80 2.23 2.51 2.41 2.50 2.63 2.65 2.80 2.93 2.70 2.73 2.70 2.46 2.41 2.40 2.30 2.27 2.34 2.45 2.49 2.04 1.86 1.86 1.98 2.20 2.43 2.32 2.63 2.40 2.60 2.95 3.05 2.84 2.78 2.74 2.82 2.95 3.00 2.55 2.04 1.74 1.80 1.97
1.28 1.41 1.51 1.63 1.83 1.96 2.14 2.42 2.71 2.70 2.56 2.39 2.39 2.46 2.32 2.31 2.31 2.35 2.45 2.55 2.32 2.01 1.80 1.92 2.15 2.28 2.24 2.32 2.38 2.79 2.83 2.79 2.79 2.81 2.84 2.79 2.76 2.66 2.65 2.38 2.02 1.80 1.57
1.11 1.18 1.21 1.33 1.51 1.66 1.89 2.14 2.51 2.61 2.56 2.39 2.29 2.35 2.43 2.43 2.39 2.44 2.43 2.25 2.22 2.18 1.99 2.00 2.18 2.16 2.16 2.22 2.29 2.58 2.59 2.75 2.88 2.90 2.80 2.86 2.70 2.60 2.79 2.41 2.03 1.85 1.36
1.05 1.17 1.19 1.20 1.27 1.43 1.57 1.67 1.93 2.20 2.31 2.26 2.23 2.25 2.43 2.37 2.21 2.14 2.11 2.10 1.90 1.85 1.91 2.01 2.21 2.08 2.07 2.15 2.43 2.58 2.57 2.73 2.77 2.72 2.66 2.65 2.39 2.46 2.61 2.42 1.95 1.78 1.41
0.97 1.09 1.11 1.07 1.10 1.19 1.37 1.53 1.84 2.00 2.19 2.21 2.19 2.23 2.32 2.22 2.06 2.10 1.89 1.88 1.81 1.72 1.81 1.93 1.96 1.95 2.00 2.04 2.48 2.38 2.46 2.64 2.54 2.34 2.66 2.53 2.19 2.40 2.52 2.55 2.65 2.27 1.90
0.81 0.93 0.98 1.11 1.17 1.12 1.24 1.42 1.73 2.06 2.28 2.36 2.41 2.34 2.33 2.33 2.28 2.21 1.96 1.76 1.89 1.79 1.88 1.97 1.98 2.01 2.19 2.35 2.57 2.40 2.44 2.59 2.40 2.39 2.66 2.49 2.25 2.34 2.38 2.58 2.89 2.93 2.45
0.80 1.02 1.20 1.26 1.13 0.99 1.06 1.21 1.53 2.03 2.30 2.46 2.42 2.24 2.39 2.30 2.29 2.20 2.01 1.84 1.83 1.88 2.00 2.16 2.15 2.22 2.27 2.39 2.52 2.31 2.44 2.49 2.38 2.46 2.67 2.62 2.45 2.53 2.49 2.60 2.82 3.04 2.89
0.85 1.09 1.35 1.34 1.10 0.93 0.93 1.08 1.46 1.81 2.05 2.22 2.29 2.15 2.10 2.03 2.02 2.03 1.97 1.96 1.97 1.95 1.96 2.10 2.16 2.14 2.18 2.28 2.40 2.22 2.30 2.31 2.34 2.35 2.50 2.57 2.78 2.81 2.76 2.90 2.94 2.99 3.04
0.93 1.00 1.16 1.30 1.19 1.06 1.00 1.21 1.51 1.72 1.85 1.96 2.01 1.98 1.98 1.97 1.88 1.83 1.89 1.96 1.88 1.80 1.85 1.93 1.91 1.83 1.96 2.15 2.18 2.08 2.18 2.26 2.25 2.43 2.68 2.63 2.75 2.85 2.93 3.11 2.91 2.97 3.28
0.77 0.82 0.96 1.10 1.22 1.19 1.18 1.35 1.53 1.63 1.67 1.64 1.72 1.74 1.75 1.72 1.70 1.71 1.76 1.83 1.86 1.85 1.84 1.83 1.77 1.76 1.83 1.95 1.95 2.12 2.27 2.32 2.40 2.58 2.69 2.78 3.08 2.94 3.00 3.01 2.91 2.93 3.15
0.79 0.80 0.90 1.09 1.18 1.26 1.27 1.31 1.47 1.59 1.57 1.53 1.62 1.80 1.87 1.92 1.90 1.83 1.86 1.96 2.06 2.00 2.03 2.03 2.06 2.08 2.04 2.06 2.15 2.30 2.41 2.48 2.53 2.69 2.77 2.82 2.96 3.05 3.25 3.26 3.30 3.42 3.57
0.83 0.83 0.91 1.09 1.23 1.40 1.46 1.45 1.48 1.54 1.68 1.80 1.88 2.09 2.28 2.33 2.20 2.15 2.22 2.24 2.28 2.21 2.40 2.43 2.45 2.54 2.48 2.28 2.46 2.56 2.56 2.80 2.77 2.83 2.78 2.76 2.95 3.08 3.26 3.11 3.31 3.66 3.80
0.84 0.79 0.89 1.11 1.18 1.23 1.32 1.36 1.42 1.50 1.59 1.69 1.85 2.10 2.32 2.44 2.39 2.43 2.58 2.58 2.53 2.63 2.76 2.72 2.71 2.68 2.35 2.54 2.69 2.72 2.84 2.96 2.93 2.88 2.91 2.84 2.84 2.76 2.79 2.83 2.99 3.27 3.43
0.87 0.85 0.87 0.99 1.22 1.16 1.17 1.30 1.42 1.58 1.74 2.00 2.20 2.34 2.51 2.62 2.59 2.54 2.58 2.61 2.64 2.64 2.71 2.74 2.79 2.63 2.61 2.73 2.56 2.59 2.59 2.69 2.81 2.87 2.92 2.64 2.47 2.62 2.47 2.63 2.74 2.72 2.74
1.16 1.20 1.27 1.27 1.36 1.32 1.32 1.42 1.56 1.75 1.85 1.97 2.20 2.36 2.57 2.65 2.67 2.74 2.72 2.79 2.89 2.92 2.94 2.91 2.90 2.83 2.68 2.68 2.46 2.57 2.44 2.46 2.51 2.58 2.64 2.61 2.49 2.46 2.59 2.60 2.47 2.22 2.13
1.23 1.36 1.43 1.46 1.47 1.53 1.66 1.85 1.92 2.10 2.28 2.40 2.56 2.65 2.67 2.74 2.77 2.80 2.94 3.06 3.17 3.16 3.18 3.13 3.09 3.05 3.05 3.03 2.70 2.62 2.41 2.46 2.47 2.53 2.55 2.52 2.34 2.49 2.46 2.38 2.31 2.15 1.97
1.38 1.46 1.49 1.54 1.74 1.80 1.87 2.06 2.29 2.46 2.65 2.81 2.90 2.96 2.99 2.99 2.94 2.94 3.05 3.12 3.18 3.18 3.20 3.10 3.12 3.07 3.04 3.15 2.88 2.69 2.42 2.45 2.49 2.60 2.62 2.61 2.39 2.45 2.39 2.28 2.27 2.13 2.04
1.59 1.61 1.64 1.73 1.87 1.95 2.03 2.22 2.51 2.75 2.95 2.99 3.04 3.08 3.15 3.28 3.38 3.42 3.23 3.08 3.07 3.13 3.22 3.21 3.26 3.24 3.17 3.16 2.78 2.63 2.49 2.52 2.57 2.52 2.47 2.50 2.55 2.30 2.14 2.04 1.99 2.06 2.19
1.75 1.78 1.80 1.85 1.89 2.04 2.19 2.30 2.56 2.70 2.89 2.93 3.04 3.11 3.13 3.05 3.07 3.33 3.36 3.31 3.22 3.12 3.14 3.21 3.14 3.03 2.98 2.82 2.48 2.27 2.26 2.34 2.37 2.39 2.39 2.43 2.44 2.16 1.93 1.71 1.65 1.75 1.80
1.70 1.71 1.76 1.90 1.91 1.95 2.15 2.42 2.50 2.58 2.62 2.74 2.86 3.06 3.14 3.21 3.16 3.12 3.19 3.19 3.14 2.99 2.79 2.82 2.85 2.84 2.83 2.71 2.40 2.10 2.02 2.05 2.00 2.09 2.33 2.37 2.22 2.01 1.84 1.73 1.67 1.61 1.53
1.68 1.75 1.71 1.74 1.86 1.97 2.15 2.25 2.29 2.42 2.64 2.76 2.80 2.87 2.96 3.02 3.09 3.15 3.08 3.02 3.01 2.96 2.80 2.78 2.80 2.81 2.74 2.53 2.24 2.07 1.98 1.94 1.90 2.01 2.23 2.32 2.28 2.10 1.95 1.83 1.68 1.49 1.47
1.60 1.70 1.79 1.82 1.89 1.97 2.12 2.26 2.32 2.37 2.50 2.55 2.51 2.59 2.77 2.88 2.95 3.07 3.11 2.94 2.81 2.83 2.72 2.76 2.92 2.85 2.61 2.42 2.26 2.01 1.92 1.92 2.02 2.09 2.18 2.33 2.36 2.31 2.18 2.01 1.87 1.73 1.61
1.57 1.72 1.79 1.86 1.90 1.93 2.02 2.07 2.13 2.28 2.43 2.51 2.53 2.51 2.57 2.72 2.82 2.77 2.82 2.85 2.59 2.51 2.35 2.37 2.44 2.47 2.36 2.25 2.16 2.03 1.96 1.93 1.98 1.95 2.00 2.27 2.34 2.36 2.33 2.20 2.00 1.84 1.74